This demonstration page uses our WeatherBlox Daily Observations layout. Learn more.

41.55636, -103.73856

Hourly Observations for October 27, 2020

Temp ( °F °C ) Dew Point ( °F °C ) Humidity (%) Winds ( mph kmh ) Pressure ( in mb ) Visibility ( mi km ) Precip ( " mm )
12:58 am 00:58 Clear -1 -18.6 -10 -23.5 66 66 W 5 7 30.45 1031 10 16.0934 0 0
1:58 am 01:58 Clear -1 -18.1 -8 -22.4 69 69 W 6 9 30.42 1030 10 16.0934 0 0
2:58 am 02:58 Clear 3 -16 -5 -20.5 69 69 W 5 7 30.41 1030 10 16.0934 0 0
3:58 am 03:58 Clear 5 -15 -4 -19.9 66 66 WSW 6 9 30.39 1029 10 16.0934 0 0
4:58 am 04:58 Clear 4 -15.8 -5 -20.6 67 67 W 5 7 30.4 1029 10 16.0934 0 0
5:58 am 05:58 Clear 7 -13.8 -3 -19.2 64 64 WSW 6 9 30.39 1029 10 16.0934 0 0
6:58 am 06:58 Clear 8 -13.5 -4 -19.9 59 59 WSW 6 9 30.37 1028 10 16.0934 0 0
7:58 am 07:58 Sunny 7 -14 -3 -19.6 63 63 W 6 9 30.38 1029 10 16.0934 0 0
8:58 am 08:58 Sunny 13 -10.4 0 -17.9 54 54 SW 10 17 30.37 1028 10 16.0934 0 0
9:58 am 09:58 Sunny 18 -7.8 6 -14.4 59 59 SW 9 15 30.37 1028 10 16.0934 0 0
10:58 am 10:58 Sunny 21 -6.1 10 -12.2 62 62 SW 9 15 30.33 1027 10 16.0934 0 0
11:58 am 11:58 Sunny 24 -4.3 13 -10.4 63 63 SSW 16 26 30.33 1027 10 16.0934 0 0
12:58 pm 12:58 Sunny 27 -2.6 9 -12.6 47 47 SW 13 20 30.33 1027 10 16.0934 0 0
1:58 pm 13:58 Sunny 32 -0.1 14 -10 48 48 W 13 20 30.29 1026 10 16.0934 0 0
2:58 pm 14:58 Sunny 33 0.3 18 -7.8 55 55 W 7 11 30.23 1024 10 16.0934 0 0
3:58 pm 15:58 Sunny 33 0.8 20 -6.6 58 58 WSW 8 13 30.22 1023 10 16.0934 0 0
4:58 pm 16:58 Sunny 32 0 23 -5.2 68 68 W 7 11 30.23 1024 10 16.0934 0 0
5:58 pm 17:58 Clear 29 -1.6 20 -6.7 69 69 WSW 9 15 30.23 1024 10 16.0934 0 0
6:58 pm 18:58 Clear 26 -3.1 18 -7.6 71 71 WSW 9 15 30.24 1024 10 16.0934 0 0
7:58 pm 19:58 Clear 28 -2.5 17 -8.2 65 65 WSW 5 7 30.25 1025 10 16.0934 0 0
8:58 pm 20:58 Clear 25 -3.8 18 -7.9 73 73 WSW 7 11 30.24 1024 10 16.0934 0 0
9:58 pm 21:58 Clear 28 -2.5 18 -7.6 68 68 W 10 17 30.23 1024 10 16.0934 0 0
10:58 pm 22:58 Clear 27 -2.8 18 -7.7 69 69 W 9 15 30.22 1024 10 16.0934 0 0
11:58 pm 23:58 Clear 27 -2.6 19 -7.4 70 70 WNW 8 13 30.2 1023 10 16.0934 0 0

Powered by AerisWeather